Tracking 30696 objects as of 15-Jun-2025
HD Live streaming from Space Station
objects crossing your sky now

STARLINK-11623

Track STARLINK-11623 now!
10-day predictions
STARLINK-11623 is classified as:


NORAD ID: 63276
Int'l Code: 2025-053M
Perigee: 361.3 km
Apogee: 366.0 km
Inclination: 43.0 °
Period: 91.7 minutes
Semi major axis: 6734 km
RCS: Unknown
Launch date: March 15, 2025
Source: United States (US)
Launch site: AIR FORCE EASTERN TEST RANGE (AFETR)
Your satellite tracking list
Your tracking list is empty




NASA's NSSDC Master Catalog

Two Line Element Set (TLE):
1 63276U 25053M   25165.48273800  .00209042  00000-0  15922-2 0  9998
2 63276  42.9993 289.2406 0003488 284.9086  75.1395 15.70833044 15475
Source of the keplerian elements: AFSPC